#timestamp,LO_Frequency,Hit,StdDev 
1679626815.7,286047005.3,N
1679626835.5,286047006.3,N
1679626855.3,286047019.5,N
1679626875.2,286047022.6,N
1679626895.0,286047019.5,N
1679626895.9,286047019.5,N
1679626915.8,286047022.0,N
1679626935.6,286047016.2,N
1679626955.4,286047016.4,N
1679626975.3,286047006.5,N
1679626995.1,286047002.2,N
1679627015.8,286047003.2,N
1679627035.7,286047011.3,N
1679627055.5,286047010.2,N
1679627075.4,286047013.8,N
1679627095.2,286047013.8,N
1679627115.0,286047010.2,N
1679627115.9,286047010.2,N
1679627135.8,286047013.3,N
1679627155.6,286047014.7,N
1679627175.4,286047015.5,N
1679627195.3,286047011.2,N
1679627215.1,286047011.7,N
1679627235.9,286047019.3,N
1679627255.7,286047028.4,Y
1679627275.5,286047023.5,P
1679627295.4,286047014.8,N
1679627315.2,286047015.0,N
1679627335.0,286047013.4,N
1679627336.0,286047013.4,Y
1679627355.8,286046987.3,P
1679627375.6,286046991.6,N
1679627395.5,286046994.0,N
1679627415.3,286046995.1,N
1679627435.1,286046994.1,N
1679627455.9,286046990.4,N
1679627475.7,286046989.7,N
1679627495.5,286046988.7,N
1679627515.4,286046990.1,N
1679627535.2,286046986.2,N
1679627555.1,286046984.3,N
1679627556.0,286046984.3,N
1679627575.8,286046987.6,N
1679627595.6,286046992.5,N
1679627615.5,286046994.5,N
1679627635.3,286046993.9,N
1679627655.1,286046995.1,N
1679627675.9,286046998.0,N
1679627695.7,286046995.3,N
1679627715.6,286047000.9,N
1679627735.4,286047004.2,N
1679627755.3,286047009.6,N
1679627775.1,286047014.5,N
1679627795.8,286047015.1,N
1679627815.7,286047016.7,N
1679627835.5,286047016.8,N
1679627855.4,286047016.8,N
1679627875.2,286047015.9,N
1679627895.0,286047018.6,N
1679627895.9,286047018.6,N
1679627915.8,286047016.5,N
1679627935.6,286047015.1,N
1679627955.4,286047018.8,N
1679627975.3,286047022.0,N
1679627995.1,286047019.7,N
1679628015.9,286047015.9,N
1679628035.7,286047015.7,N
1679628055.5,286047020.3,N
1679628075.4,286047029.6,N
1679628095.2,286047031.7,N
1679628115.0,286047023.3,N
1679628115.9,286047023.3,N
1679628135.8,286047015.2,N
1679628155.6,286047023.3,N
1679628175.5,286047024.3,N
1679628195.3,286047013.8,N
1679628215.1,286047012.0,N
1679628235.9,286047015.4,N
1679628255.7,286047014.1,N
1679628275.5,286047025.1,Y
1679628295.4,286047008.2,P
1679628315.2,286047004.3,N
1679628335.1,286047002.3,N
1679628336.0,286047002.3,N
1679628355.8,286047005.7,N
1679628375.6,286047008.2,N
1679628395.5,286047009.3,N
1679628415.3,286047014.3,Y
1679628435.2,286047001.4,P
1679628455.9,286046999.8,N
1679628475.7,286046995.8,N
1679628495.6,286046996.2,N
1679628515.4,286046997.7,N
1679628535.2,286046994.5,N
1679628555.1,286046996.9,N
1679628556.0,286046996.9,N
1679628575.8,286046997.3,N
1679628595.7,286046987.0,Y
1679628615.5,286046990.4,P
1679628635.3,286046993.9,N
1679628655.2,286047002.8,N
1679628675.0,286047009.7,N
1679628675.9,286047009.7,N
1679628695.7,286047010.5,N
1679628715.6,286046999.7,N
1679628735.4,286047003.1,N
1679628755.3,286046999.3,N
1679628775.1,286047002.8,N
1679628776.0,286047002.8,N
1679628795.8,286046998.5,N
1679628815.7,286047001.7,N
1679628835.5,286047011.9,N
1679628855.3,286047012.8,N
1679628875.2,286047011.3,N
1679628895.0,286047007.5,N
1679628895.9,286047007.5,N
1679628915.8,286047017.2,N
1679628935.6,286047013.7,N
1679628955.4,286047013.0,N
1679628975.3,286047016.9,N
1679628995.1,286047012.8,N
1679629015.8,286047017.1,N
1679629035.7,286047021.3,N
1679629055.5,286047017.8,N
1679629075.4,286047013.0,N
1679629095.2,286047017.4,N
1679629115.0,286047025.1,Y
1679629115.9,286047025.1,P
1679629135.8,286047012.4,N
1679629155.6,286047007.4,N
1679629175.4,286047001.0,N
1679629195.3,286046994.2,N
1679629215.1,286046986.1,N
1679629235.9,286046992.8,N
1679629255.7,286046997.0,N
1679629275.5,286046992.8,N
1679629295.4,286046989.7,N
1679629315.2,286046981.1,N
1679629335.0,286046989.2,N
1679629336.0,286046989.2,N
1679629355.8,286046991.0,N
1679629375.6,286046986.6,N
1679629395.5,286046989.3,N
1679629415.3,286046990.5,N
1679629435.1,286046998.7,N
1679629455.9,286047008.0,N
1679629475.7,286047005.0,N
1679629495.6,286046994.9,N
1679629515.4,286046986.9,N
1679629535.2,286046980.9,N
1679629555.1,286046981.5,N
1679629556.0,286046981.5,N
1679629575.8,286046983.5,N
1679629595.6,286046976.1,N
1679629615.5,286046981.9,N
1679629635.3,286046985.9,N
1679629655.2,286046990.0,N
1679629675.9,286046991.2,N
1679629695.7,286047001.0,N
1679629715.6,286047001.5,N
1679629735.4,286046996.3,N
1679629755.2,286046994.5,N
1679629775.1,286047000.1,N
1679629776.0,286047000.1,N
1679629795.8,286047006.4,N
1679629815.7,286047007.5,N
1679629835.5,286047012.0,N
1679629855.3,286047011.9,N
1679629875.2,286047007.5,N
1679629895.0,286047011.9,N
1679629895.9,286047011.9,N
1679629915.7,286047006.7,N
1679629935.6,286047003.2,N
1679629955.4,286047002.2,N
1679629975.3,286047005.6,N
1679629995.1,286047005.7,N
1679630015.8,286047004.6,N
1679630035.7,286047008.0,N
1679630055.5,286047003.3,N
1679630075.3,286047000.1,N
1679630095.2,286046999.7,N
1679630115.0,286047010.2,N
1679630115.9,286047010.2,N
1679630135.8,286047008.6,N
1679630155.6,286047002.1,N
1679630175.4,286046996.3,N
1679630195.3,286046990.5,N
1679630215.1,286046992.0,N
1679630235.9,286046994.6,N
1679630255.7,286046996.2,N
1679630275.5,286046990.9,N
1679630295.4,286046985.4,N
1679630315.2,286046981.4,N
1679630335.0,286046979.5,N
1679630335.9,286046979.5,N
1679630355.8,286046983.7,N
1679630375.6,286046993.5,N
1679630395.5,286047004.7,N
